Vertical_Velocity
-0 0 -0 -1 -1 -0 2 -6 3 -3 0 -3 -3 0 0 -1 1 -1 -1 -1 0 -1 -0 -1 2 4 2 -3 -1 2 1 -1 2 1 2 -1 -1 -4 3 -4 -3 -0 1 -2
-1 0 1 1 -1 0 -0 -1 3 2 -5 -0 -4 2 -0 -0 -1 -0 -0 1 -3 2 4 -2 -1 -1 -3 -3 -2 0 -3 -2 -1 -4 2 2 -2 1 -3 -0 -4 -5 -2 1
-0 0 1 3 -10 -3 -2 0 -4 1 -14 -1 1 -0 -0 -1 -0 -1 -0 -2 -0 3 -3 -3 -1 -2 0 -2 -1 -1 0 2 3 1 2 5 -6 -2 -4 -3 4 5 0 3
-0 2 2 4 0 -1 -3 -4 0 2 -1 -1 -1 -0 -1 -1 0 -1 -0 -3 -0 -6 -6 0 -0 -0 -1 -1 -2 -1 1 2 5 3 -7 -6 -1 2 1 4 -0 -4 1 0
2 -0 -6 1 2 -2 -5 -4 -4 -2 -2 -3 1 -2 2 -1 -0 -2 0 0 -7 0 -0 -1 -5 -2 2 -1 -3 1 2 1 1 -4 -1 -2 -0 0 -2 -2 -3 -0 -4 -3
2 2 0 6 1 -1 1 5 0 -1 -1 -0 1 3 3 -0 -2 1 -4 -3 -6 3 1 -6 0 -2 1 -0 -1 1 1 -0 -0 0 -0 -2 -1 0 1 2 -1 1 -3 -1
-0 -0 -6 -1 0 -0 9 10 1 -1 -0 0 -0 3 -1 0 -1 0 -1 -5 2 1 -2 -3 -1 -1 -0 -0 -2 -1 -1 -2 0 0 -1 -1 -1 -0 0 -2 -2 -3 -2 -1
4 3 -3 -1 3 6 5 2 -0 -1 -0 -1 -1 -1 1 0 -1 0 -1 -4 1 -0 -2 -1 -0 -1 -1 -1 -1 -2 -1 -2 2 0 -0 -2 -0 -1 -1 -3 -2 -1 -1 -2
-2 -8 0 -2 2 2 -0 1 0 1 3 -3 -1 -1 -1 -1 -1 1 -2 -3 0 -0 -1 -1 -1 -1 -0 -1 -4 -1 -1 -2 -1 0 0 -1 1 -1 -1 -1 -1 -1 -1 -1
4 -6 -3 -0 -1 -1 -2 -2 -1 -2 -2 -2 -3 -1 -0 -0 -0 -1 -3 -2 1 -0 1 -2 -1 -2 -2 -1 -2 -0 -2 -1 -2 -1 -0 -0 0 -1 -1 -1 -1 -1 -0 -0
-4 -2 -1 -2 -1 -1 -1 -1 -1 -1 -1 -1 -1 -0 0 0 -1 -0 -1 -3 0 1 0 -1 -0 -2 -1 -0 -1 -1 -0 0 -1 -2 -1 0 0 0 1 0 0 -0 -1 -0
-5 -3 -2 2 0 1 1 1 -0 -1 0 -0 -0 -0 0 0 -1 -0 -1 -2 -2 -0 1 0 0 -3 -1 1 0 -2 -1 -0 -0 -1 -1 -1 -0 1 -1 -2 -1 -1 -1 -1
-0 -2 1 -1 -1 -0 0 -0 -1 -2 -1 -1 1 0 0 1 2 -1 -0 -1 -2 -0 0 1 1 -2 -2 -0 -1 -0 -4 -1 -0 -1 -1 -1 -0 1 -2 -0 -2 -3 -3 -3
1 -1 1 1 5 -1 -1 -0 -1 -1 -1 -1 1 1 0 -1 1 1 -2 -0 1 -0 0 1 0 1 -1 -0 -2 -0 -1 -1 -0 -0 -0 0 -2 -2 1 1 -0 -2 -1 -0
2 0 -1 -2 -0 -1 -1 -2 -2 -2 -1 0 0 2 2 1 -1 -1 1 -0 2 2 1 2 1 -1 1 -1 -1 -1 -0 -0 0 -1 -0 0 -1 -2 -1 1 1 -0 -0 -2
-1 0 -1 -0 -1 -1 -1 -0 -1 -1 0 0 0 -0 2 3 2 1 1 -1 -3 -5 -1 -1 -0 0 0 -3 -1 -1 -1 -0 0 -1 -2 -1 -1 -2 -1 0 -0 -1 -0 -1
-0 0 -0 -1 -0 -0 -1 -2 -1 -1 -0 -0 -0 1 0 1 1 2 -0 -1 1 1 2 2 2 -2 -1 -4 -0 0 -1 -1 -2 -1 -1 -1 -1 -2 -0 0 0 -1 -1 -1
-1 -1 -1 -1 -1 -1 -1 -0 -0 -0 0 1 1 0 -0 0 0 0 0 -0 0 1 0 2 3 -1 -2 -1 0 1 1 0 0 -0 -0 -0 -2 -1 0 -0 -0 -1 -0 -1
-1 -1 -4 -4 -3 -2 -2 -1 0 0 1 1 1 1 2 1 2 1 2 1 1 -0 -1 2 0 -2 -2 -1 1 1 1 0 -0 0 0 -1 -2 -1 -1 -1 -1 -1 -1 -2
-0 1 -0 -2 -0 0 0 1 -0 0 0 1 1 1 1 1 1 1 1 -1 2 1 4 2 -3 0 2 -2 -1 -0 -0 0 0 0 -0 -1 -0 -1 -2 -1 -0 -1 -1 -2
-1 -1 -0 -1 -0 2 1 -1 -1 1 1 -1 -2 0 0 1 2 1 0 0 0 1 2 -0 -3 3 1 -2 -1 -1 0 -0 0 -0 -1 -0 -1 -1 -1 -1 -0 -0 -1 -1
0 -0 -1 -1 2 2 0 1 1 0 -1 -1 -1 -0 1 1 1 1 0 0 4 0 -2 -1 -1 0 4 -1 1 1 1 -0 -0 -0 -0 -0 -1 -2 -2 -1 -0 -1 -1 -1
0 -1 -0 0 0 -0 -0 -0 -1 -1 -1 -1 -1 -2 -1 -1 -0 -0 0 0 -1 -2 1 2 1 3 1 -4 0 1 1 0 0 0 -0 -1 -1 -1 -1 -0 -0 -1 -1 -1
-1 -2 -1 -1 -1 -1 -1 -1 -1 -1 -1 -0 0 -1 0 -0 0 -0 -1 1 2 1 2 3 2 0 -4 -1 0 0 0 1 0 -1 1 -1 -1 -2 -1 0 0 -1 -1 -0
-1 -1 -0 -0 -1 -1 -0 0 -0 -0 -0 -0 -0 0 1 1 -0 -1 -1 0 1 1 3 2 0 -1 -7 0 -1 -0 0 1 1 1 1 -0 -1 -2 -1 0 0 -0 -0 1
0 0 0 -0 -0 -0 -0 0 -0 -1 -0 0 1 0 0 0 0 0 -0 -0 0 2 2 5 3 -1 -6 -4 -3 1 1 2 1 1 0 -1 -1 -2 -0 0 -1 -1 -1 -0
-0 -0 -1 -1 -1 -0 -0 -0 -1 -1 -0 -0 0 -1 -0 -0 -1 -1 1 1 1 1 3 1 2 1 1 2 -2 0 1 1 0 1 1 -0 -1 -1 -1 1 -0 -0 0 0
Height
1460 1461 1464 1465 1464 1465 1471 1468 1465 1453 1454 1454 1456 1459 1461 1464 1465 1466 1467 1467 1466 1464 1463 1461 1459 1456 1452 1451 1451 1449 1447 1445 1445 1444 1443 1442 1441 1441 1440 1439 1440 1440 1438 1437
1469 1463 1465 1466 1463 1461 1465 1465 1463 1460 1458 1455 1456 1457 1460 1462 1464 1465 1465 1464 1463 1463 1459 1457 1454 1452 1451 1450 1449 1447 1445 1445 1443 1443 1442 1440 1440 1440 1440 1438 1438 1437 1436 1435
1461 1462 1464 1461 1450 1452 1454 1453 1456 1458 1452 1453 1455 1457 1460 1462 1462 1462 1463 1463 1462 1459 1456 1455 1453 1451 1450 1449 1449 1447 1446 1444 1442 1441 1441 1440 1440 1440 1439 1438 1438 1436 1435 1436
1465 1465 1462 1441 1442 1442 1445 1448 1450 1449 1450 1452 1455 1457 1458 1458 1459 1461 1461 1461 1461 1458 1457 1454 1453 1452 1451 1450 1449 1448 1446 1445 1442 1440 1440 1441 1442 1441 1440 1439 1438 1439 1438 1437
1462 1452 1439 1433 1439 1443 1443 1441 1442 1445 1450 1452 1453 1455 1454 1456 1457 1459 1459 1459 1459 1457 1456 1454 1454 1453 1451 1450 1450 1450 1447 1445 1443 1442 1442 1442 1443 1442 1442 1442 1441 1440 1441 1441
1459 1459 1444 1434 1436 1439 1440 1436 1439 1442 1446 1448 1452 1451 1449 1454 1455 1457 1457 1458 1459 1457 1456 1456 1455 1454 1453 1451 1451 1450 1449 1448 1446 1445 1445 1446 1446 1446 1445 1445 1445 1445 1445 1446
1456 1455 1442 1431 1437 1439 1441 1442 1440 1443 1445 1448 1449 1451 1452 1452 1455 1456 1457 1458 1458 1456 1457 1457 1456 1456 1455 1454 1454 1453 1452 1451 1450 1449 1449 1450 1450 1449 1449 1449 1450 1449 1449 1448
1451 1453 1450 1434 1439 1438 1437 1438 1441 1443 1445 1447 1448 1450 1450 1451 1453 1454 1455 1457 1458 1457 1458 1458 1458 1458 1457 1456 1456 1457 1456 1455 1455 1454 1453 1453 1454 1453 1453 1453 1452 1452 1451 1451
1438 1436 1433 1435 1435 1437 1439 1439 1440 1442 1443 1444 1447 1448 1448 1450 1452 1453 1453 1456 1457 1457 1458 1458 1458 1458 1458 1458 1458 1459 1459 1458 1458 1458 1457 1457 1457 1456 1455 1455 1454 1453 1453 1452
1437 1429 1432 1434 1436 1438 1438 1439 1440 1441 1442 1444 1445 1446 1446 1447 1449 1449 1451 1453 1455 1455 1456 1456 1457 1458 1459 1460 1460 1460 1461 1461 1461 1461 1460 1460 1459 1458 1457 1456 1455 1454 1453 1452
1431 1429 1432 1432 1434 1435 1437 1438 1439 1440 1440 1441 1442 1443 1443 1443 1444 1446 1448 1450 1452 1453 1454 1455 1456 1457 1459 1460 1460 1461 1462 1462 1461 1462 1461 1461 1460 1459 1457 1456 1456 1454 1453 1452
1424 1423 1425 1426 1431 1434 1436 1436 1437 1437 1437 1438 1438 1439 1439 1440 1441 1442 1444 1445 1448 1449 1451 1453 1454 1455 1458 1459 1460 1460 1461 1462 1462 1462 1462 1462 1461 1459 1458 1456 1455 1454 1452 1451
1422 1424 1427 1429 1431 1432 1433 1434 1434 1434 1434 1434 1434 1434 1434 1435 1436 1437 1439 1441 1444 1446 1449 1450 1452 1454 1455 1457 1458 1459 1460 1461 1461 1461 1461 1461 1460 1459 1457 1455 1453 1452 1450 1448
1423 1424 1427 1428 1429 1430 1430 1431 1430 1430 1430 1429 1429 1429 1429 1431 1432 1433 1433 1436 1440 1443 1445 1447 1449 1451 1453 1454 1456 1457 1458 1459 1460 1460 1460 1459 1458 1458 1456 1454 1451 1449 1447 1445
1421 1422 1424 1426 1427 1428 1427 1427 1426 1426 1425 1425 1424 1425 1425 1426 1426 1428 1430 1432 1435 1438 1440 1443 1445 1447 1449 1451 1453 1455 1456 1457 1458 1458 1458 1457 1457 1456 1454 1452 1450 1447 1445 1442
1419 1421 1423 1424 1424 1424 1424 1423 1423 1423 1422 1421 1421 1421 1422 1422 1423 1424 1425 1426 1428 1430 1434 1438 1441 1444 1447 1449 1451 1453 1454 1455 1456 1456 1456 1455 1455 1454 1452 1450 1447 1445 1442 1440
1419 1421 1421 1422 1422 1422 1422 1421 1420 1419 1418 1418 1417 1418 1418 1418 1419 1420 1421 1422 1425 1427 1431 1434 1437 1439 1442 1444 1448 1450 1451 1452 1453 1453 1453 1453 1452 1451 1449 1447 1445 1442 1440 1437
1419 1420 1420 1420 1420 1419 1419 1418 1417 1415 1414 1413 1413 1413 1414 1415 1415 1416 1417 1419 1421 1423 1426 1430 1433 1435 1438 1441 1444 1446 1448 1449 1450 1450 1450 1450 1449 1448 1447 1445 1442 1439 1437 1434
1418 1419 1420 1419 1418 1418 1417 1415 1414 1412 1410 1409 1409 1410 1410 1411 1412 1412 1413 1415 1417 1419 1421 1425 1427 1430 1433 1437 1440 1443 1444 1446 1447 1447 1447 1447 1446 1445 1443 1441 1439 1436 1434 1431
1417 1418 1418 1418 1417 1416 1415 1414 1412 1410 1408 1407 1407 1407 1407 1407 1407 1408 1409 1410 1413 1415 1419 1421 1423 1426 1429 1432 1436 1439 1441 1442 1443 1444 1444 1444 1443 1442 1440 1438 1436 1434 1432 1429
1416 1417 1417 1417 1416 1414 1414 1412 1411 1409 1407 1406 1406 1404 1403 1403 1404 1404 1405 1406 1408 1411 1414 1416 1418 1422 1425 1429 1432 1434 1437 1439 1440 1440 1441 1441 1440 1439 1437 1435 1433 1431 1429 1427
1416 1417 1417 1416 1415 1414 1413 1411 1410 1408 1406 1405 1404 1403 1402 1401 1401 1401 1402 1403 1405 1405 1407 1410 1413 1417 1421 1425 1428 1431 1433 1435 1436 1437 1437 1437 1436 1436 1434 1432 1431 1429 1427 1424
1416 1417 1417 1416 1415 1413 1412 1410 1409 1407 1405 1404 1403 1402 1400 1399 1399 1399 1398 1399 1400 1401 1403 1406 1409 1413 1417 1420 1425 1427 1430 1431 1432 1433 1433 1433 1433 1432 1431 1429 1428 1427 1424 1422
1417 1416 1416 1415 1413 1412 1411 1410 1408 1406 1404 1403 1401 1400 1399 1397 1397 1396 1396 1396 1396 1396 1398 1401 1406 1409 1413 1417 1421 1424 1426 1428 1429 1429 1429 1429 1429 1429 1427 1426 1425 1423 1421 1419
1416 1415 1415 1414 1413 1412 1410 1409 1407 1405 1404 1402 1400 1398 1397 1396 1395 1393 1393 1392 1393 1394 1396 1399 1403 1406 1409 1414 1418 1421 1423 1424 1425 1425 1426 1426 1425 1424 1423 1422 1421 1420 1418 1416
1414 1414 1413 1412 1412 1410 1409 1407 1405 1404 1402 1400 1399 1397 1395 1394 1393 1392 1391 1391 1392 1393 1395 1397 1399 1402 1404 1409 1414 1417 1418 1420 1421 1421 1422 1422 1421 1421 1419 1418 1417 1416 1414 1412
1413 1412 1411 1410 1409 1408 1407 1405 1404 1402 1401 1399 1397 1396 1394 1392 1391 1391 1390 1391 1391 1393 1395 1396 1399 1400 1403 1405 1409 1412 1414 1416 1417 1418 1418 1418 1418 1417 1415 1414 1413 1412 1410 1408